Time,TemperatureF,DewpointF,PressureIn,WindDirection,WindDirectionDegrees,WindSpeedMPH,WindSpeedGustMPH,Humidity,HourlyPrecipIn,Conditions,Clouds,dailyrainin,SoftwareType,DateUTC
2013-03-04 00:01:00,33.0,30.0,29.57,NW,323,0.0,0.0,90,0.00,,,0.00,,2013-03-04 06:01:00,
2013-03-04 00:11:00,33.0,30.0,29.57,NW,323,0.0,0.0,90,0.00,,,0.00,,2013-03-04 06:11:00,
2013-03-04 00:21:00,34.0,32.0,29.57,South,169,0.0,4.0,91,0.00,,,0.00,,2013-03-04 06:21:00,
2013-03-04 00:32:00,34.0,31.0,29.57,South,169,0.0,2.0,90,0.00,,,0.00,,2013-03-04 06:32:00,
2013-03-04 00:42:00,34.0,31.0,29.57,South,169,0.0,2.0,90,0.00,,,0.00,,2013-03-04 06:42:00,
2013-03-04 00:51:00,33.0,31.0,29.57,NE,49,0.0,4.0,91,0.00,,,0.00,,2013-03-04 06:51:00,
2013-03-04 01:01:00,33.0,31.0,29.57,NE,49,0.0,4.0,91,0.00,,,0.00,,2013-03-04 07:01:00,
2013-03-04 01:11:00,33.0,31.0,29.57,NE,49,0.0,4.0,91,0.00,,,0.00,,2013-03-04 07:11:00,
2013-03-04 01:21:00,33.0,31.0,29.56,NE,49,0.0,2.0,92,0.00,,,0.00,,2013-03-04 07:21:00,
2013-03-04 01:32:00,33.0,31.0,29.57,NE,49,0.0,1.0,91,0.00,,,0.00,,2013-03-04 07:32:00,
2013-03-04 01:42:00,33.0,31.0,29.57,NE,49,0.0,1.0,91,0.00,,,0.00,,2013-03-04 07:42:00,
2013-03-04 01:51:00,33.0,31.0,29.57,NE,49,0.0,1.0,91,0.00,,,0.00,,2013-03-04 07:51:00,
2013-03-04 02:02:00,33.0,31.0,29.57,NE,49,0.0,2.0,92,0.00,,,0.00,,2013-03-04 08:02:00,
2013-03-04 02:11:00,33.0,31.0,29.57,NE,49,0.0,2.0,92,0.00,,,0.00,,2013-03-04 08:11:00,
2013-03-04 02:22:00,32.0,30.0,29.58,NE,49,0.0,2.0,91,0.00,,,0.00,,2013-03-04 08:22:00,
2013-03-04 02:32:00,32.0,30.0,29.59,NE,49,0.0,2.0,92,0.00,,,0.00,,2013-03-04 08:32:00,
2013-03-04 02:42:00,32.0,30.0,29.59,NE,49,0.0,2.0,92,0.00,,,0.00,,2013-03-04 08:42:00,
2013-03-04 02:52:00,32.0,30.0,29.59,NE,49,0.0,2.0,92,0.00,,,0.00,,2013-03-04 08:52:00,
2013-03-04 03:01:00,34.0,32.0,29.59,WNW,286,2.0,5.0,93,0.00,,,0.00,,2013-03-04 09:01:00,
2013-03-04 03:11:00,34.0,32.0,29.59,WNW,286,2.0,5.0,93,0.00,,,0.00,,2013-03-04 09:11:00,
2013-03-04 03:21:00,36.0,33.0,29.59,WNW,292,3.0,7.0,88,0.00,,,0.00,,2013-03-04 09:21:00,
2013-03-04 03:32:00,38.0,34.0,29.60,WNW,290,8.0,12.0,84,0.00,,,0.00,,2013-03-04 09:32:00,
2013-03-04 03:42:00,38.0,34.0,29.60,WNW,290,8.0,12.0,84,0.00,,,0.00,,2013-03-04 09:42:00,
2013-03-04 03:51:00,40.0,34.0,29.61,NW,319,6.0,13.0,80,0.00,,,0.00,,2013-03-04 09:51:00,
2013-03-04 04:01:00,41.0,35.0,29.62,NW,315,9.0,14.0,79,0.00,,,0.00,,2013-03-04 10:01:00,
2013-03-04 04:11:00,41.0,35.0,29.62,NW,315,9.0,14.0,79,0.00,,,0.00,,2013-03-04 10:11:00,
2013-03-04 04:22:00,40.0,34.0,29.63,WNW,285,8.0,15.0,80,0.00,,,0.00,,2013-03-04 10:22:00,
2013-03-04 04:32:00,40.0,34.0,29.65,North,5,10.0,19.0,79,0.00,,,0.00,,2013-03-04 10:32:00,
2013-03-04 04:42:00,40.0,34.0,29.65,North,5,10.0,19.0,79,0.00,,,0.00,,2013-03-04 10:42:00,
2013-03-04 04:52:00,38.0,33.0,29.66,North,9,6.0,18.0,81,0.00,,,0.00,,2013-03-04 10:52:00,
2013-03-04 05:01:00,37.0,32.0,29.67,NNW,331,8.0,13.0,83,0.00,,,0.00,,2013-03-04 11:01:00,
2013-03-04 05:11:00,37.0,32.0,29.67,NNW,331,8.0,13.0,83,0.00,,,0.00,,2013-03-04 11:11:00,
2013-03-04 05:22:00,36.0,32.0,29.67,NNE,15,10.0,19.0,84,0.00,,,0.00,,2013-03-04 11:22:00,
2013-03-04 05:32:00,36.0,32.0,29.68,NE,38,8.0,14.0,85,0.00,,,0.00,,2013-03-04 11:32:00,
2013-03-04 05:42:00,36.0,32.0,29.68,NE,38,8.0,14.0,85,0.00,,,0.00,,2013-03-04 11:42:00,
2013-03-04 05:52:00,36.0,32.0,29.69,NNW,346,9.0,17.0,85,0.00,,,0.00,,2013-03-04 11:52:00,
2013-03-04 06:01:00,36.0,32.0,29.70,North,355,7.0,15.0,85,0.00,,,0.00,,2013-03-04 12:01:00,
2013-03-04 06:11:00,36.0,32.0,29.70,North,355,7.0,15.0,85,0.00,,,0.00,,2013-03-04 12:11:00,
2013-03-04 06:22:00,37.0,33.0,29.70,North,11,11.0,16.0,84,0.00,,,0.00,,2013-03-04 12:22:00,
2013-03-04 06:32:00,37.0,32.0,29.70,North,11,12.0,20.0,83,0.00,,,0.00,,2013-03-04 12:32:00,
2013-03-04 06:42:00,37.0,32.0,29.70,North,11,12.0,20.0,83,0.00,,,0.00,,2013-03-04 12:42:00,
2013-03-04 06:52:00,36.0,31.0,29.72,NNE,15,9.0,16.0,83,0.00,,,0.00,,2013-03-04 12:52:00,
2013-03-04 07:02:00,36.0,31.0,29.72,NNE,15,9.0,16.0,83,0.00,,,0.00,,2013-03-04 13:02:00,
2013-03-04 07:11:00,36.0,31.0,29.72,NNE,15,9.0,16.0,83,0.00,,,0.00,,2013-03-04 13:11:00,
2013-03-04 07:21:00,36.0,32.0,29.73,North,360,9.0,18.0,84,0.00,,,0.00,,2013-03-04 13:21:00,
2013-03-04 07:32:00,35.0,31.0,29.73,North,5,7.0,12.0,84,0.00,,,0.00,,2013-03-04 13:32:00,
2013-03-04 07:42:00,35.0,31.0,29.73,North,5,7.0,12.0,84,0.00,,,0.00,,2013-03-04 13:42:00,
2013-03-04 07:51:00,35.0,31.0,29.74,North,9,6.0,14.0,84,0.00,,,0.00,,2013-03-04 13:51:00,
2013-03-04 08:01:00,35.0,30.0,29.75,North,11,7.0,16.0,83,0.00,,,0.00,,2013-03-04 14:01:00,
2013-03-04 08:11:00,35.0,30.0,29.75,North,11,7.0,16.0,83,0.00,,,0.00,,2013-03-04 14:11:00,
2013-03-04 08:22:00,35.0,30.0,29.75,North,9,9.0,16.0,82,0.00,,,0.00,,2013-03-04 14:22:00,
2013-03-04 08:32:00,36.0,31.0,29.75,North,350,9.0,18.0,82,0.00,,,0.00,,2013-03-04 14:32:00,
2013-03-04 08:42:00,36.0,31.0,29.75,North,350,9.0,18.0,82,0.00,,,0.00,,2013-03-04 14:42:00,
2013-03-04 08:52:00,36.0,30.0,29.75,North,355,8.0,16.0,80,0.00,,,0.00,,2013-03-04 14:52:00,
2013-03-04 09:01:00,36.0,30.0,29.76,North,355,8.0,15.0,79,0.00,,,0.00,,2013-03-04 15:01:00,
2013-03-04 09:11:00,36.0,30.0,29.76,North,355,8.0,15.0,79,0.00,,,0.00,,2013-03-04 15:11:00,
2013-03-04 09:22:00,37.0,30.0,29.76,North,355,9.0,15.0,77,0.00,,,0.00,,2013-03-04 15:22:00,
2013-03-04 09:32:00,37.0,30.0,29.76,NNW,333,11.0,18.0,75,0.00,,,0.00,,2013-03-04 15:32:00,
2013-03-04 09:42:00,37.0,30.0,29.76,NNW,333,11.0,18.0,75,0.00,,,0.00,,2013-03-04 15:42:00,
2013-03-04 09:52:00,38.0,30.0,29.77,NNE,16,7.0,21.0,73,0.00,,,0.00,,2013-03-04 15:52:00,
2013-03-04 10:02:00,38.0,28.0,29.77,North,10,14.0,21.0,67,0.00,,,0.00,,2013-03-04 16:02:00,
2013-03-04 10:11:00,38.0,28.0,29.77,North,10,14.0,21.0,67,0.00,,,0.00,,2013-03-04 16:11:00,
2013-03-04 10:21:00,39.0,26.0,29.75,NE,35,15.0,26.0,59,0.00,,,0.00,,2013-03-04 16:21:00,
2013-03-04 10:32:00,40.0,26.0,29.77,NNE,23,14.0,24.0,56,0.00,,,0.00,,2013-03-04 16:32:00,
2013-03-04 10:42:00,40.0,26.0,29.77,NNE,23,14.0,24.0,56,0.00,,,0.00,,2013-03-04 16:42:00,
2013-03-04 10:52:00,41.0,26.0,29.77,North,9,11.0,22.0,54,0.00,,,0.00,,2013-03-04 16:52:00,
2013-03-04 11:02:00,42.0,26.0,29.76,NNE,17,11.0,20.0,53,0.00,,,0.00,,2013-03-04 17:02:00,
2013-03-04 11:11:00,42.0,26.0,29.76,NNE,17,11.0,20.0,53,0.00,,,0.00,,2013-03-04 17:11:00,
2013-03-04 11:22:00,42.0,25.0,29.77,NNE,32,12.0,22.0,51,0.00,,,0.00,,2013-03-04 17:22:00,
2013-03-04 11:32:00,43.0,25.0,29.77,North,355,10.0,20.0,49,0.00,,,0.00,,2013-03-04 17:32:00,
2013-03-04 11:42:00,43.0,25.0,29.77,North,355,10.0,20.0,49,0.00,,,0.00,,2013-03-04 17:42:00,
2013-03-04 11:52:00,44.0,25.0,29.77,NE,44,8.0,18.0,47,0.00,,,0.00,,2013-03-04 17:52:00,
2013-03-04 12:01:00,44.0,25.0,29.77,North,10,9.0,17.0,47,0.00,,,0.00,,2013-03-04 18:01:00,
2013-03-04 12:11:00,44.0,25.0,29.77,North,10,9.0,17.0,47,0.00,,,0.00,,2013-03-04 18:11:00,
2013-03-04 12:21:00,45.0,23.0,29.77,North,360,10.0,20.0,42,0.00,,,0.00,,2013-03-04 18:21:00,
2013-03-04 12:32:00,45.0,24.0,29.77,NNE,33,9.0,16.0,43,0.00,,,0.00,,2013-03-04 18:32:00,
2013-03-04 12:42:00,45.0,24.0,29.77,NNE,33,9.0,16.0,43,0.00,,,0.00,,2013-03-04 18:42:00,
2013-03-04 12:52:00,46.0,22.0,29.77,NE,38,9.0,18.0,39,0.00,,,0.00,,2013-03-04 18:52:00,
2013-03-04 13:02:00,46.0,22.0,29.77,NE,38,10.0,17.0,39,0.00,,,0.00,,2013-03-04 19:02:00,
2013-03-04 13:11:00,46.0,22.0,29.77,NE,38,10.0,17.0,39,0.00,,,0.00,,2013-03-04 19:11:00,
2013-03-04 13:22:00,47.0,23.0,29.77,NNE,26,10.0,19.0,38,0.00,,,0.00,,2013-03-04 19:22:00,
2013-03-04 13:32:00,46.0,23.0,29.76,North,5,9.0,16.0,40,0.00,,,0.00,,2013-03-04 19:32:00,
2013-03-04 13:42:00,46.0,23.0,29.76,North,5,9.0,16.0,40,0.00,,,0.00,,2013-03-04 19:42:00,
2013-03-04 13:52:00,46.0,22.0,29.78,North,5,7.0,17.0,39,0.00,,,0.00,,2013-03-04 19:52:00,
2013-03-04 14:02:00,46.0,22.0,29.78,NNE,28,5.0,10.0,39,0.00,,,0.00,,2013-03-04 20:02:00,
2013-03-04 14:11:00,46.0,22.0,29.78,NNE,28,5.0,10.0,39,0.00,,,0.00,,2013-03-04 20:11:00,
2013-03-04 14:22:00,46.0,24.0,29.78,North,5,5.0,10.0,41,0.00,,,0.00,,2013-03-04 20:22:00,
2013-03-04 14:32:00,46.0,25.0,29.78,North,355,5.0,12.0,43,0.00,,,0.00,,2013-03-04 20:32:00,
2013-03-04 14:42:00,46.0,25.0,29.78,North,355,5.0,12.0,43,0.00,,,0.00,,2013-03-04 20:42:00,
2013-03-04 14:52:00,45.0,23.0,29.80,North,349,12.0,19.0,41,0.00,,,0.00,,2013-03-04 20:52:00,
2013-03-04 15:02:00,44.0,26.0,29.82,North,360,6.0,15.0,48,0.00,,,0.00,,2013-03-04 21:02:00,
2013-03-04 15:11:00,44.0,26.0,29.82,North,360,6.0,15.0,48,0.00,,,0.00,,2013-03-04 21:11:00,
2013-03-04 15:22:00,44.0,21.0,29.83,NNW,340,9.0,14.0,39,0.00,,,0.00,,2013-03-04 21:22:00,
2013-03-04 15:32:00,45.0,19.0,29.84,NNW,328,10.0,20.0,35,0.00,,,0.00,,2013-03-04 21:32:00,
2013-03-04 15:42:00,45.0,19.0,29.84,NNW,328,10.0,20.0,35,0.00,,,0.00,,2013-03-04 21:42:00,
2013-03-04 15:52:00,44.0,20.0,29.85,North,355,14.0,23.0,38,0.00,,,0.00,,2013-03-04 21:52:00,
2013-03-04 16:02:00,43.0,22.0,29.86,North,5,14.0,25.0,43,0.00,,,0.00,,2013-03-04 22:02:00,
2013-03-04 16:12:00,43.0,22.0,29.86,North,5,14.0,25.0,43,0.00,,,0.00,,2013-03-04 22:12:00,
2013-03-04 16:22:00,43.0,22.0,29.87,North,5,6.0,14.0,42,0.00,,,0.00,,2013-03-04 22:22:00,
2013-03-04 16:32:00,43.0,19.0,29.89,North,11,9.0,23.0,38,0.00,,,0.00,,2013-03-04 22:32:00,
2013-03-04 16:42:00,43.0,19.0,29.89,North,11,9.0,23.0,38,0.00,,,0.00,,2013-03-04 22:42:00,
2013-03-04 16:52:00,42.0,17.0,29.91,NW,319,13.0,25.0,36,0.00,,,0.00,,2013-03-04 22:52:00,
2013-03-04 17:02:00,41.0,17.0,29.93,North,355,12.0,26.0,38,0.00,,,0.00,,2013-03-04 23:02:00,
2013-03-04 17:11:00,41.0,17.0,29.93,North,355,12.0,26.0,38,0.00,,,0.00,,2013-03-04 23:11:00,
2013-03-04 17:22:00,40.0,15.0,29.96,WNW,303,10.0,20.0,36,0.00,,,0.00,,2013-03-04 23:22:00,
2013-03-04 17:32:00,40.0,15.0,29.96,North,5,12.0,21.0,35,0.00,,,0.00,,2013-03-04 23:32:00,
2013-03-04 17:42:00,40.0,15.0,29.96,North,5,12.0,21.0,35,0.00,,,0.00,,2013-03-04 23:42:00,
2013-03-04 17:52:00,40.0,15.0,29.97,NNE,24,14.0,24.0,35,0.00,,,0.00,,2013-03-04 23:52:00,
2013-03-04 18:02:00,39.0,14.0,29.97,NNW,345,17.0,25.0,35,0.00,,,0.00,,2013-03-05 00:02:00,
2013-03-04 18:11:00,39.0,14.0,29.97,NNW,345,17.0,25.0,35,0.00,,,0.00,,2013-03-05 00:11:00,
2013-03-04 18:21:00,37.0,12.0,29.99,WNW,295,12.0,25.0,35,0.00,,,0.00,,2013-03-05 00:21:00,
2013-03-04 18:32:00,37.0,13.0,30.00,WNW,285,10.0,24.0,37,0.00,,,0.00,,2013-03-05 00:32:00,
2013-03-04 18:42:00,37.0,13.0,30.00,WNW,285,10.0,24.0,37,0.00,,,0.00,,2013-03-05 00:42:00,
2013-03-04 18:51:00,36.0,13.0,30.02,NNW,338,8.0,20.0,39,0.00,,,0.00,,2013-03-05 00:51:00,
2013-03-04 19:01:00,36.0,13.0,30.02,NNW,338,8.0,20.0,39,0.00,,,0.00,,2013-03-05 01:01:00,
2013-03-04 19:12:00,36.0,13.0,30.02,NNW,338,8.0,20.0,39,0.00,,,0.00,,2013-03-05 01:12:00,
2013-03-04 19:22:00,36.0,12.0,30.03,WNW,290,11.0,25.0,37,0.00,,,0.00,,2013-03-05 01:22:00,
2013-03-04 19:32:00,35.0,11.0,30.06,West,272,17.0,28.0,37,0.00,,,0.00,,2013-03-05 01:32:00,
2013-03-04 19:41:00,35.0,11.0,30.06,West,272,17.0,28.0,37,0.00,,,0.00,,2013-03-05 01:41:00,
2013-03-04 19:52:00,34.0,11.0,30.06,West,270,15.0,26.0,38,0.00,,,0.00,,2013-03-05 01:52:00,
2013-03-04 20:01:00,33.0,12.0,30.06,West,271,10.0,24.0,41,0.00,,,0.00,,2013-03-05 02:01:00,
2013-03-04 20:11:00,33.0,12.0,30.06,West,271,10.0,24.0,41,0.00,,,0.00,,2013-03-05 02:11:00,
2013-03-04 20:22:00,33.0,12.0,30.08,West,278,10.0,20.0,42,0.00,,,0.00,,2013-03-05 02:22:00,
2013-03-04 20:32:00,32.0,12.0,30.09,NNE,30,9.0,21.0,42,0.00,,,0.00,,2013-03-05 02:32:00,
2013-03-04 20:42:00,32.0,12.0,30.09,NNE,30,9.0,21.0,42,0.00,,,0.00,,2013-03-05 02:42:00,
2013-03-04 20:52:00,31.0,11.0,30.09,NNW,333,7.0,20.0,43,0.00,,,0.00,,2013-03-05 02:52:00,
2013-03-04 21:02:00,31.0,12.0,30.10,NNW,336,10.0,20.0,44,0.00,,,0.00,,2013-03-05 03:02:00,
2013-03-04 21:12:00,31.0,12.0,30.10,NNW,336,10.0,20.0,44,0.00,,,0.00,,2013-03-05 03:12:00,
2013-03-04 21:22:00,30.0,11.0,30.11,North,5,9.0,19.0,45,0.00,,,0.00,,2013-03-05 03:22:00,
2013-03-04 21:32:00,30.0,13.0,30.12,North,350,6.0,17.0,49,0.00,,,0.00,,2013-03-05 03:32:00,
2013-03-04 21:42:00,30.0,13.0,30.12,North,350,6.0,17.0,49,0.00,,,0.00,,2013-03-05 03:42:00,
2013-03-04 21:52:00,29.0,14.0,30.13,NNW,338,8.0,15.0,54,0.00,,,0.00,,2013-03-05 03:52:00,
2013-03-04 22:02:00,29.0,13.0,30.13,NNE,16,9.0,18.0,50,0.00,,,0.00,,2013-03-05 04:02:00,
2013-03-04 22:11:00,29.0,13.0,30.13,NNE,16,9.0,18.0,50,0.00,,,0.00,,2013-03-05 04:11:00,
2013-03-04 22:22:00,28.0,13.0,30.13,North,349,7.0,15.0,52,0.00,,,0.00,,2013-03-05 04:22:00,
2013-03-04 22:32:00,27.0,13.0,30.14,NNE,13,8.0,13.0,54,0.00,,,0.00,,2013-03-05 04:32:00,
2013-03-04 22:42:00,27.0,13.0,30.14,NNE,13,8.0,13.0,54,0.00,,,0.00,,2013-03-05 04:42:00,
2013-03-04 22:52:00,27.0,13.0,30.14,NNE,13,8.0,13.0,54,0.00,,,0.00,,2013-03-05 04:52:00,
2013-03-04 23:02:00,27.0,13.0,30.15,North,5,7.0,14.0,56,0.00,,,0.00,,2013-03-05 05:02:00,
2013-03-04 23:12:00,27.0,13.0,30.15,North,5,7.0,14.0,56,0.00,,,0.00,,2013-03-05 05:12:00,
2013-03-04 23:22:00,26.0,13.0,30.16,North,355,8.0,16.0,57,0.00,,,0.00,,2013-03-05 05:22:00,
2013-03-04 23:32:00,26.0,13.0,30.17,North,5,8.0,16.0,58,0.00,,,0.00,,2013-03-05 05:32:00,
2013-03-04 23:42:00,26.0,13.0,30.17,North,5,8.0,16.0,58,0.00,,,0.00,,2013-03-05 05:42:00,
2013-03-04 23:52:00,26.0,14.0,30.17,North,355,5.0,13.0,59,0.00,,,0.00,,2013-03-05 05:52:00,